User: anonymous   Login
Location: Bow
(51.5261°N, 0.0167°W)
Time: 00:43:24
(UTC+00:00)
Language:

Cosmos 1428 Rocket - Orbit

View from above orbital plane
View from above orbital plane
View from above satellite
View from above satellite

Ground track
Ground track

The orbit data is extracted from the following two-line orbital elements,

1 13758U 83001B   20336.54806501 +.00000022 +00000-0 +69149-5 0  9997
2 13758 082.9123 082.1826 0028023 039.5027 320.8167 13.78791663905483
Epoch (UTC): 01 December 2020 13:09:12
Eccentricity: 0.0028023
inclination: 82.9123°
perigee height: 947 km
apogee height: 989 km
right ascension of ascending node: 82.1826°
argument of perigee: 39.5027°
revolutions per day: 13.78791663
mean anomaly at epoch: 320.8167°
orbit number at epoch: 90548

The dashed part of the orbit path shows where the satellite is in the earth's shadow,  

DLR